User: anonymous   Login
Location: Unspecified
(0.0000°N, 0.0000°E)
Time: 18:47:50
(UTC+00:00)
Language:

PANSAT - Orbit

View from above orbital plane
View from above orbital plane
View from above satellite
View from above satellite

Ground track
Ground track

The orbit data is extracted from the following two-line orbital elements,

1 25520U 98064B   17145.37363502 +.00000711 +00000-0 +17200-4 0  9991
2 25520 028.4572 139.7483 0005382 109.2277 250.8901 15.28358490030794
Epoch (UTC): 25 May 2017 08:58:02
Eccentricity: 0.0005382
inclination: 28.4572°
perigee height: 477 km
apogee height: 484 km
right ascension of ascending node: 139.7483°
argument of perigee: 109.2277°
revolutions per day: 15.28358490
mean anomaly at epoch: 250.8901°
orbit number at epoch: 3079

The dashed part of the orbit path shows where the satellite is in the earth's shadow,  

DLR